EW7678 Weather Reports


Display with metric or nautical units.
time (UTC)temp
F
wind
direction
speed
MPH
gust
MPH
rain 1hr
in
rain 24hr
in
rain mn
in
humidity
%
barometer
mb
20260905041558 52 46 0.0 0.0 0.00 0.00 0.00 96 1017.8
20260905040058 53 46 0.0 0.0 0.00 0.00 0.00 95 1017.7
20260905034609 53 46 0.0 0.0 0.00 0.00 0.00 96 1017.6
20260905033105 54 46 0.0 0.0 0.00 0.00 0.00 95 1017.3
20260905031608 54 46 0.0 0.0 0.00 0.00 0.00 95 1017.5
20260905030050 54 46 0.0 0.0 0.00 0.00 0.00 95 1017.4
20260905024551 55 46 0.0 0.0 0.00 0.00 0.00 95 1017.3
20260905023122 55 47 0.0 0.0 0.00 0.00 0.00 94 1016.9
20260905021546 56 46 0.0 0.0 0.00 0.00 0.00 94 1017.0
20260905020045 56 46 0.0 0.0 0.00 0.00 0.00 93 1016.8
20260905014543 56 46 0.0 0.0 0.00 0.00 0.00 93 1016.8
20260905013042 57 46 0.0 0.0 0.00 0.00 0.00 93 1016.8
20260905011553 57 46 0.0 0.0 0.00 0.00 0.00 93 1016.6
20260905010043 57 46 0.0 0.0 0.00 0.00 0.00 93 1016.5
20260905004537 57 46 0.0 0.0 0.00 0.00 0.00 92 1016.3
20260905003036 57 46 0.0 0.0 0.00 0.00 0.00 92 1016.1
20260905001534 58 46 0.0 0.0 0.00 0.00 0.00 90 1015.9
20260905000034 58 47 0.0 0.0 0.00 0.00 0.00 87 1015.8
20260904234535 59 46 0.0 0.0 0.00 0.00 0.00 85 1015.6
20260904233029 59 47 0.0 0.0 0.00 0.00 0.00 83 1015.4
20260904231528 59 47 0.0 0.0 0.00 0.00 0.00 82 1015.3
20260904230026 59 47 0.0 0.0 0.00 0.00 0.00 83 1015.2
20260904224528 58 13 0.0 1.0 0.00 0.00 0.00 82 1015.1
20260904223023 58 8 0.0 0.0 0.00 0.00 0.00 83 1015.1
20260904221523 58 9 0.0 0.0 0.00 0.00 0.00 84 1014.9
20260904220034 58 9 0.0 1.0 0.00 0.00 0.00 83 1014.9
20260904214521 58 290 0.0 2.0 0.00 0.00 0.00 84 1014.9
20260904213020 58 280 0.0 0.0 0.00 0.00 0.00 85 1014.7
20260904211519 57 11 0.0 1.0 0.00 0.00 0.00 85 1014.7
20260904210024 57 44 0.0 0.0 0.00 0.00 0.00 86 1014.6
20260904204517 57 311 0.0 1.0 0.00 0.00 0.00 87 1014.5
20260904203015 58 24 0.0 2.0 0.00 0.00 0.00 86 1014.4
20260904201513 58 277 0.0 2.0 0.00 0.00 0.00 82 1014.2
20260904200019 58 283 0.0 2.0 0.00 0.00 0.00 81 1014.2
20260904194539 58 290 0.0 3.0 0.00 0.00 0.00 82 1014.1
20260904193012 58 124 0.0 3.0 0.00 0.00 0.00 80 1014.0
20260904191517 58 289 0.0 2.0 0.00 0.00 0.00 83 1013.9
20260904190009 58 198 0.0 4.0 0.00 0.00 0.00 85 1014.0
20260904184508 58 228 1.0 3.0 0.00 0.00 0.00 84 1013.9
20260904183007 59 241 0.0 1.0 0.00 0.00 0.00 85 1013.7
20260904181503 58 108 0.0 1.0 0.00 0.00 0.00 87 1013.8
20260904180117 57 176 0.0 1.0 0.00 0.00 0.00 92 1013.9
20260904174610 56 217 0.0 1.0 0.00 0.00 0.00 93 1013.6
20260904173058 55 305 0.0 1.0 0.00 0.00 0.00 96 1013.6
20260904171551 54 47 0.0 1.0 0.00 0.00 0.00 97 1013.6
20260904170049 53 47 0.0 2.0 0.00 0.00 0.00 97 1013.4
20260904164547 53 79 0.0 2.0 0.00 0.00 0.00 97 1013.4
20260904163052 53 161 0.0 0.0 0.00 0.00 0.00 97 1013.3
20260904161544 53 160 0.0 0.0 0.00 0.00 0.00 97 1013.2
20260904160041 53 140 0.0 1.0 0.00 0.00 0.00 97 1013.0
20260904154541 52 120 0.0 0.0 0.00 0.00 0.00 98 1012.9
20260904153044 52 120 0.0 0.0 0.00 0.00 0.00 98 1012.8
20260904151533 51 120 0.0 0.0 0.00 0.00 0.00 97 1012.8
20260904150028 51 120 0.0 0.0 0.00 0.00 0.00 98 1012.7
20260904144525 51 120 0.0 0.0 0.00 0.00 0.00 98 1012.7
20260904143024 51 120 0.0 0.0 0.00 0.00 0.00 98 1012.7
20260904141521 50 120 0.0 0.0 0.00 0.00 0.00 98 1012.6
20260904140019 50 120 0.0 0.0 0.00 0.00 0.00 98 1012.5
20260904134516 49 120 0.0 0.0 0.00 0.00 0.00 97 1012.5
20260904133016 49 120 0.0 0.0 0.00 0.00 0.00 97 1012.2
20260904131515 49 120 0.0 0.0 0.00 0.00 0.00 98 1012.2
20260904130013 49 120 0.0 0.0 0.00 0.00 0.00 98 1012.3
20260904124510 48 120 0.0 0.0 0.00 0.00 0.00 98 1012.1
20260904123007 47 120 0.0 0.0 0.00 0.00 0.00 98 1011.7
20260904121506 47 120 0.0 0.0 0.00 0.00 0.00 98 1011.7
20260904120006 46 120 0.0 0.0 0.00 0.00 0.00 97 1011.5
20260904114503 45 120 0.0 0.0 0.00 0.00 0.00 97 1011.4
20260904113009 45 120 0.0 0.0 0.00 0.00 0.00 97 1011.2
20260904111502 45 120 0.0 0.0 0.00 0.00 0.00 97 1011.1
20260904110001 45 120 0.0 0.0 0.00 0.00 0.00 97 1011.0
20260904104603 45 120 0.0 0.0 0.00 0.00 0.00 97 1011.1
20260904103059 45 120 0.0 0.0 0.00 0.00 0.00 97 1011.1
20260904101609 45 120 0.0 0.0 0.00 0.00 0.00 97 1011.1
20260904094556 45 120 0.0 0.0 0.00 0.00 0.00 97 1011.2
20260904093114 45 120 0.0 0.0 0.00 0.00 0.00 97 1011.3
20260904091555 45 120 0.0 0.0 0.00 0.00 0.00 97 1011.4
20260904090054 45 120 0.0 0.0 0.00 0.00 0.00 97 1011.4
20260904084552 45 120 0.0 0.0 0.00 0.00 0.00 97 1011.3
20260904083053 45 120 0.0 0.0 0.00 0.00 0.00 97 1011.3
20260904081549 46 120 0.0 0.0 0.00 0.00 0.00 97 1011.3
20260904080046 46 120 0.0 0.0 0.00 0.00 0.00 97 1011.3
20260904074545 47 120 0.0 0.0 0.00 0.00 0.00 97 1011.2
20260904073043 47 120 0.0 0.0 0.00 0.00 0.00 97 1011.2
20260904071541 47 120 0.0 0.0 0.00 0.00 0.00 97 1011.3
20260904070046 48 120 0.0 0.0 0.00 0.00 0.00 97 1011.2
20260904064544 48 120 0.0 0.0 0.00 0.00 0.00 97 1011.3
20260904063037 48 120 0.0 0.0 0.00 0.00 0.00 97 1011.2
20260904061545 48 120 0.0 0.0 0.00 0.00 0.00 96 1011.1
20260904060034 48 120 0.0 0.0 0.00 0.00 0.00 96 1011.0
20260904054533 49 120 0.0 0.0 0.00 0.00 0.00 96 1011.0
20260904053026 49 120 0.0 0.0 0.00 0.00 0.00 96 1010.8
20260904051528 50 120 0.0 0.0 0.00 0.00 0.00 96 1010.8
20260904050022 50 120 0.0 0.0 0.00 0.00 0.00 96 1010.8
20260904044530 51 120 0.0 0.0 0.00 0.00 0.00 96 1011.0
20260904043019 51 120 0.0 0.0 0.00 0.00 0.00 96 1010.9